Flag for Bahrain Weather past 2 weeks in Riffa, Bahrain

Now
93 °F

Clear.


Feels Like: 113 °F
Forecast: 90 / 107 °F
Wind: 7 mph from Southeast

Location: Bahrain International Airport

Current Time: Aug 5, 2015 at 1:18:43 AM

Latest Report: Aug 5, 2015 at 1:00 AM


Visibility: 4 mi

Pressure: 29.53 "Hg

Humidity: 67%

Dew point: 81 °F

Historic Weather in Riffa — Graph

°F

Riffa temperature yesterday

Maximum temperature yesterday: 104 °F (at 10:00 AM)
Minimum temperature yesterday: 91 °F (at 1:00 AM)
Average temperature yesterday: 96 °F

Past Weeks' High & Low Weather Summary

 TemperatureHumidityPressure
High113 °F (Jul 29, 12:00 PM)84% (Jul 22, 8:00 PM)29.59 "Hg (Jul 22, 8:00 PM)
Low90 °F (Jul 23, 6:00 AM)13% (Jul 21, 1:00 PM)29.36 "Hg (Jul 21, 3:00 AM)
Average98 °F55%29.48 "Hg
* Reported Midnight between Jul 20 and Jul 21 — Midnight between Aug 4 and Aug 5, Riffa, Weather by CustomWeather, © 2015

Note: Actual official high and low records may vary slightly from our data, if they occured in-between our weather recording intervals... More about our weather records

Advertising

Riffa weather history for previous 24 hours

 ConditionsComfort  
Time TempWeatherWind HumidityBarometerVisibility
12:00 AM
Wed, Aug 5
93 °FClear.6 mph67%29.53 "Hg4 mi
11:00 PM
Tue, Aug 4
93 °FClear.10 mph75%29.53 "Hg4 mi
10:00 PM95 °FClear.9 mph71%29.56 "Hg4 mi
9:00 PM95 °FClear.7 mph71%29.53 "Hg4 mi
8:00 PM95 °FClear.8 mph75%29.53 "Hg4 mi
7:00 PM95 °FClear.10 mph71%29.53 "Hg4 mi
6:00 PM95 °FSunny.12 mph71%29.53 "Hg4 mi
5:00 PM97 °FSunny.13 mph67%29.53 "Hg4 mi
4:00 PM99 °FSunny.8 mph60%29.53 "Hg4 mi
3:00 PM99 °FClear.10 mph57%29.53 "Hg4 mi
2:00 PM99 °FClear.12 mph60%29.53 "Hg4 mi
1:00 PM100 °FClear.13 mph47%29.56 "Hg5 mi
12:00 PM100 °FClear.10 mph47%29.56 "Hg4 mi
11:00 AM102 °FSunny.9 mph45%29.59 "Hg4 mi
10:00 AM104 °FSunny.3 mph31%29.59 "Hg3 mi
9:00 AM97 °FSunny.7 mph60%29.59 "Hg3 mi
8:00 AM95 °FSunny.7 mph71%29.59 "Hg3 mi
7:00 AM93 °FSunny.12 mph67%29.59 "Hg4 mi
6:00 AM91 °FSunny.8 mph71%29.56 "Hg4 mi
5:00 AM91 °FClear.9 mph71%29.56 "Hg4 mi
4:00 AM91 °FClear.10 mph75%29.56 "Hg4 mi
3:00 AM91 °FClear.10 mph80%29.53 "Hg4 mi
2:00 AM91 °FClear.10 mph80%29.53 "Hg4 mi
1:00 AM91 °FClear.7 mph75%29.53 "Hg4 mi
Weather by CustomWeather, © 2015

See weather overviewHow to use our weather pages